Regional Weather Roundup
Issued by NWS

Home | Current Version | Previous Version | Text Only | Print | Product List | Glossary Off
Versions: 1 2 3 4 5 6 7 8 9 10 11 12 13 14 15 16 17 18 19 20 21 22 23 24 25 26 27 28 29 30 31 32 33 34 35 36 37 38 39 40 41 42 43 44 45 46 47 48 49 50

000
ASUS43 KBIS 172210
RWRND

NORTH DAKOTA REGIONAL WEATHER ROUNDUP
NATIONAL WEATHER SERVICE BISMARCK ND
400 PM CST SUN DEC 17 2017

NOTE: "FAIR" INDICATES FEW OR NO CLOUDS BELOW 12,000 FEET WITH NO
SIGNIFICANT WEATHER AND/OR OBSTRUCTIONS TO VISIBILITY.


NDZ001>003-009>011-017-172300-
NORTHWEST NORTH DAKOTA

CITY           SKY/WX    TMP DP  RH WIND       PRES   REMARKS
WILLISTON      CLOUDY    37  20  50 SW10      29.70F
MINOT          CLEAR     39  24  55 S16       29.71F
MINOT AFB      CLEAR     38  24  55 S15       29.70F
$$

NDZ018>021-031>035-040>046-172300-
SOUTHWEST NORTH DAKOTA

CITY           SKY/WX    TMP DP  RH WIND       PRES   REMARKS
BISMARCK       CLEAR     41  22  46 SW9       29.82F
DICKINSON      CLEAR     40  24  53 SW20      29.73F
GARRISON         N/A     39  25  57 SW16      29.74F
HETTINGER ARPT CLEAR     39  23  52 SW16      29.80F
$$

NDZ004>008-012>016-024-026-027-054-172300-
NORTHEAST NORTH DAKOTA

CITY           SKY/WX    TMP DP  RH WIND       PRES   REMARKS
GRAND FORKS    CLEAR     24  19  81 S14       29.86F WCI  12
GRND FRKS AFB  CLEAR     26  17  69 SW9       29.85F WCI  17
DEVILS LAKE    CLEAR     33  23  66 S10       29.80F
$$

NDZ022-023-025-028>030-036>039-047>053-172300-
SOUTHEAST NORTH DAKOTA

CITY           SKY/WX    TMP DP  RH WIND       PRES   REMARKS
FARGO          CLEAR     31  27  85 S6        29.90F
JAMESTOWN      CLEAR     37  25  61 SW8       29.84F
$$





USA.gov is the U.S. government's official web portal to all federal, state and local government web resources and services.